Location: Blackwater Beach
(38.5801°N, 75.1577°W)
Time: 03:46:38
(UTC+00:00)

Cosmos 2297 Rocket - Pass Details

Date: 23 May 2026
Orbit: 838 x 842 km, 71.0° (Epoch: 9 June)

Event Time Altitude Azimuth Distance (km) Brightness Sun altitude
Exits shadow 04:24:24 12° 264° (W) 2,330 4.5 -30.3°
Maximum altitude 04:27:57 20° 306° (NW) 1,858 4.4 -30.4°
Drops below altitude 10° 04:32:00 10° 353° (N) 2,461 5.5 -30.5°
Sets 04:35:09 0° 10° (N) 3,401 6.4 -30.6°
